This demonstration page uses our WeatherBlox Daily Observations layout. Learn more.

39.92423, -83.80882

Hourly Observations for May 11, 2017

Temp ( °F °C ) Dew Point ( °F °C ) Humidity (%) Winds ( mph kmh ) Pressure ( in mb ) Visibility ( mi km ) Precip ( " mm )
12:56 am 00:56 Cloudy with Light Rain 65 18.3 62 16.7 90 90 SSE 8 13 29.83 1010 7 11.26538 0.01 0.254
1:56 am 01:56 Cloudy with Rain 67 19.4 63 17.2 87 87 SW 14 22 29.79 1009 6 9.65604 0.03 0.762
2:42 am 02:42 Mostly Cloudy with Light Rain 64 18 61 16 88 88 SW 10 17 29.77 1008 10 16.0934 0.02 0.508
2:56 am 02:56 Cloudy with Light Rain 64 17.8 61 16.1 90 90 WSW 18 30 29.76 1008 10 16.0934 0.02 0.508
3:13 am 03:13 Cloudy with Light Rain 64 18 61 16 88 88 WSW 13 20 29.74 1007 10 16.0934 0 0.0254
3:56 am 03:56 Partly Cloudy 64 17.8 61 16.1 90 90 WSW 12 19 29.78 1008 10 16.0934 0 0.0254
4:31 am 04:31 Mostly Cloudy 64 18 63 17 94 94 W 14 22 29.8 1009 10 16.0934 0 0
4:56 am 04:56 Cloudy 64 17.8 61 16.1 90 90 W 14 22 29.79 1009 10 16.0934 0 0
5:56 am 05:56 Cloudy 64 17.8 61 16.1 90 90 WSW 13 20 29.78 1009 10 16.0934 0 0
6:56 am 06:56 Cloudy 64 17.8 61 16.1 90 90 W 12 19 29.8 1009 10 16.0934 0 0
7:21 am 07:21 Cloudy 63 17 61 16 94 94 W 13 20 29.77 1008 10 16.0934 0 0
7:56 am 07:56 Cloudy 62 16.7 59 15 90 90 WNW 14 22 29.84 1010 10 16.0934 0 0
8:05 am 08:05 Cloudy 61 16 57 14 88 88 WNW 14 22 29.83 1010 9 14.48406 0 0
8:21 am 08:21 Cloudy 57 14 55 13 94 94 WNW 15 24 29.85 1011 9 14.48406 0 0
8:56 am 08:56 Cloudy with Mist and Fog 57 13.9 55 12.8 93 93 WNW 14 22 29.87 1011 5 8.0467 0 0
9:56 am 09:56 Cloudy 56 13.3 54 12.2 93 93 NW 9 15 29.87 1012 10 16.0934 0 0.0254
10:56 am 10:56 Cloudy 59 15 54 12.2 83 83 NNW 13 20 29.86 1011 10 16.0934 0 0
11:22 am 11:22 Cloudy 61 16 55 13 83 83 NNW 14 22 29.83 1010 10 16.0934 0 0
11:56 am 11:56 Cloudy 60 15.6 54 12.2 80 80 NW 14 22 29.88 1012 10 16.0934 0 0
12:56 pm 12:56 Cloudy 59 15 54 12.2 83 83 N 12 19 29.89 1012 10 16.0934 0 0
1:56 pm 13:56 Cloudy 57 13.9 52 11.1 83 83 N 12 19 29.9 1013 10 16.0934 0 0
2:56 pm 14:56 Cloudy 58 14.4 52 11.1 81 81 NNE 9 15 29.9 1012 10 16.0934 0 0.0254
3:56 pm 15:56 Cloudy 60 15.6 53 11.7 78 78 NNE 8 13 29.89 1012 10 16.0934 0 0
4:29 pm 16:29 Cloudy 61 16 54 12 77 77 ENE 8 13 29.88 1012 10 16.0934 0 0
4:56 pm 16:56 Cloudy 61 16.1 54 12.2 78 78 NE 9 15 29.87 1011 10 16.0934 0 0
5:56 pm 17:56 Cloudy 62 16.7 54 12.2 75 75 NNE 6 9 29.87 1012 10 16.0934 0 0
6:48 pm 18:48 Mostly Sunny 63 17 54 12 73 73 NNE 7 11 29.85 1011 10 16.0934 0 0
6:56 pm 18:56 Mostly Sunny 63 17.2 52 11.1 68 68 NNE 8 13 29.86 1011 10 16.0934 0 0
7:56 pm 19:56 Mostly Cloudy 61 16.1 50 10 67 67 NNE 12 19 29.88 1012 10 16.0934 0 0
8:56 pm 20:56 Clear 57 13.9 47 8.3 69 69 NNE 13 20 29.91 1013 10 16.0934 0 0
9:56 pm 21:56 Mostly Clear 54 12.2 46 7.8 75 75 NE 12 19 29.92 1013 10 16.0934 0 0
10:56 pm 22:56 Cloudy 54 12.2 44 6.7 69 69 NE 12 19 29.93 1013 10 16.0934 0 0
11:56 pm 23:56 Cloudy 53 11.7 43 6.1 69 69 NE 10 17 29.93 1013 10 16.0934 0 0

Powered by AerisWeather